[[{"header":{"parameterUnit":"m.s-1","parameterCategory":1,"la1":30.2991,"la2":30.254,"lo1":-89.0895,"lo2":-89.0444,"dy":0.0017,"dx":0.0017,"nx":28,"ny":28,"refTime":"2025-08-04T21:00:00:Z","depth":0,"parameterNumber":2,"parameterNumberName":"U-component_of_WINDS"},"data":[0,0,0,0,0,0,0,0,0,0,0,0,0,0,0,0,0,0,0,0,0,0,0,0,0,0,0,0,0,0,0,0,0,0,0,0,0,0,0,0,0,0,0,0,0,0,0,0,0,0,0,0,0,0,0,0,0,0,-3.6351,-3.6351,0,-3.6331,-3.633,-3.633,-3.6206,-3.6203,-3.62,-3.6197,-3.6179,-3.6181,-3.6183,0,0,0,0,0,0,0,0,0,0,0,0,0,-3.6284,-3.6286,-3.6351,-3.6351,-3.635,-3.6331,-3.633,-3.633,-3.6206,-3.6203,-3.6199,-3.6196,-3.6178,-3.6181,-3.6184,0,0,0,0,0,0,0,0,0,0,0,0,0,-3.6294,-3.6287,-3.6351,-3.6286,-3.628,-3.6331,-3.633,-3.633,-3.6207,-3.6203,-3.6198,-3.6194,-3.6177,-3.6181,-3.6184,-3.6296,0,0,-3.6195,-3.6196,0,0,0,0,0,0,0,0,-3.6293,-3.6296,-3.6296,-3.6291,-3.6284,-3.6266,-3.63,-3.6319,-3.6208,-3.6235,-3.6197,-3.6192,-3.6212,-3.6212,-3.6218,-3.6295,-3.6294,-3.6195,-3.6197,-3.6199,-3.62,0,0,0,0,0,0,0,-3.6293,-3.6296,-3.6343,-3.6296,-3.6289,-3.6259,-3.6255,-3.6303,-3.6249,-3.6232,-3.6223,-3.6222,-3.6208,-3.6215,-3.6217,-3.6294,-3.6195,-3.6198,-3.62,-3.6201,-3.646,-3.6465,0,0,0,0,0,0,-3.6301,-3.6297,-3.6343,-3.6342,-3.6278,-3.6264,-3.626,-3.6277,-3.6248,-3.6239,-3.6226,-3.6217,-3.6211,-3.6213,-3.6216,-3.6344,-3.6199,-3.6202,-3.6204,-3.6456,-3.6462,-3.6467,0,0,0,0,0,0,-3.63,-3.6306,-3.6344,-3.6317,-3.6319,-3.627,-3.629,-3.6278,-3.6286,-3.6244,-3.6233,-3.6244,-3.6208,-3.6211,-3.6276,-3.6341,-3.6203,-3.6207,-3.645,-3.6458,-3.6464,-3.6602,0,0,0,0,0,0,-3.6299,-3.6307,-3.6348,-3.6319,-3.6321,-3.6405,-3.6294,-3.6281,-3.6292,-3.6279,-3.6257,-3.6249,-3.6205,-3.6272,-3.628,-3.6344,-3.6209,-3.6444,-3.6453,-3.6462,-3.6591,-3.6613,-3.6631,0,0,0,0,0,-3.6297,-3.6388,-3.6351,-3.6357,-3.6372,-3.6409,-3.6411,-3.6356,-3.6298,-3.6339,-3.6312,-3.625,-3.6333,-3.628,-3.6288,-3.6354,-3.644,-3.6451,-3.6461,-3.6582,-3.6608,-3.6631,0,0,0,0,0,0,-3.6428,-3.6383,-3.6341,-3.6426,-3.6422,-3.6388,-3.6439,-3.6386,-3.64,-3.6387,-3.632,-3.6317,-3.6392,-3.6379,-3.632,-3.646,-3.6376,-3.6389,-3.6465,-3.649,-3.6509,-3.651,-3.6212,0,0,0,0,0,-3.6466,-3.6499,-3.6459,-3.6538,-3.6538,-3.6489,-3.6503,-3.6462,-3.6455,-3.6453,-3.6431,-3.6428,-3.6452,-3.6471,-3.6492,-3.6589,-3.6582,-3.6638,-3.6658,-3.6675,-3.6687,-3.6736,-3.676,-3.6502,-3.6502,-3.6502,0,0,-3.6547,-3.6527,-3.6552,-3.6564,-3.6556,-3.6592,-3.6489,-3.6531,-3.6557,-3.646,-3.652,-3.6504,-3.6495,-3.6577,-3.6612,-3.6569,-3.6757,-3.6689,-3.6702,-3.6705,-3.675,-3.6774,-3.6796,-3.6509,-3.6508,-3.6507,0,0,-3.6711,-3.67,-3.6764,-3.6758,-3.6746,-3.6713,-3.6729,-3.6702,-3.6688,-3.6746,-3.6674,-3.6705,-3.675,-3.6746,-3.6751,-3.6915,-3.6858,-3.6924,-3.7028,-3.7077,-3.7097,-3.7115,-3.7172,-3.7194,-3.6935,-3.6936,-3.6936,0,-3.6813,-3.6863,-3.6803,-3.685,-3.6857,-3.677,-3.6835,-3.6832,-3.6829,-3.6836,-3.6788,-3.6842,-3.6831,-3.691,-3.695,-3.6957,-3.6972,-3.6925,-3.7099,-3.7116,-3.7132,-3.7186,-3.7208,-3.6944,-3.6943,-3.6942,-3.6941,0,-3.6988,-3.7024,-3.7077,-3.7075,-3.7089,-3.7144,-3.7093,-3.7114,-3.7072,-3.7044,-3.7106,-3.7089,-3.7104,-3.712,-3.708,-3.7194,-3.7168,-3.7111,-3.7025,-3.7165,-3.7215,-3.7235,-3.6955,-3.6952,-3.695,-3.6948,0,0,-3.7234,-3.7197,-3.7218,-3.7215,-3.7197,-3.7224,-3.7276,-3.729,-3.7309,-3.731,-3.7352,-3.7392,-3.7339,-3.7344,-3.7303,-3.7346,-3.7476,-3.7283,-3.7282,-3.7318,-3.7599,-3.7641,-3.7666,-3.7439,-3.7442,-3.7445,-3.7599,0,-3.739,-3.7475,-3.7423,-3.7516,-3.7549,-3.7467,-3.7512,-3.7506,-3.7481,-3.7506,-3.7479,-3.7508,-3.7436,-3.7439,-3.7478,-3.7452,-3.7531,-3.744,-3.7476,-3.7478,-3.7479,-3.7692,-3.7737,-3.7883,-3.7618,-3.7622,-3.7624,0,-3.7584,-3.7592,-3.7689,-3.7663,-3.7674,-3.7716,-3.7724,-3.7749,-3.774,-3.7719,-3.7725,-3.7673,-3.7723,-3.7639,-3.7706,-3.7646,-3.7658,-3.7647,-3.7651,-3.7651,-3.7559,-3.7697,-3.7928,-3.795,-3.7654,-3.7652,-3.765,0,-3.7752,-3.7788,-3.7849,-3.785,-3.7822,-3.7852,-3.7842,-3.7829,-3.7841,-3.7849,-3.7856,-3.7871,-3.7878,-3.7891,-3.7844,-3.7788,-3.7918,-3.783,-3.7902,-3.7903,-3.7931,-3.793,-3.8167,-3.7942,-3.7942,-3.7941,-3.7941,0,-3.7931,-3.7993,-3.7924,-3.7962,-3.8029,-3.7968,-3.8037,-3.8018,-3.8007,-3.804,-3.7971,-3.8004,-3.7941,-3.7968,-3.7932,-3.7993,-3.7997,-3.7982,-3.7971,-3.7987,-3.7989,-3.7993,-3.7981,-3.7947,-3.7946,-3.7945,-3.7944,0,-3.813,-3.8086,-3.8147,-3.8115,-3.8109,-3.816,-3.8132,-3.8166,-3.8137,-3.818,-3.8187,-3.8142,-3.817,-3.8125,-3.8148,-3.8124,-3.8207,-3.8182,-3.821,-3.8202,-3.8275,-3.8268,-3.8521,-3.8551,-3.8309,-3.8312,-3.8314,0,-3.8246,-3.8292,-3.8264,-3.8281,-3.8274,-3.8303,-3.8314,-3.8257,-3.8271,-3.8265,-3.83,-3.8322,-3.8336,-3.8385,-3.8354,-3.8372,-3.8345,-3.8433,-3.8347,-3.8361,-3.8345,-3.8342,-3.8346,-3.845,-3.8453,-3.8455,-3.8457,0,-3.8457,-3.8433,-3.8451,-3.8462,-3.8477,-3.8484,-3.8485,-3.8503,-3.8443,-3.8463,-3.849,-3.8501,-3.8524,-3.8546,-3.8556,-3.8546,-3.8492,-3.8485,-3.8502,-3.8517,-3.8531,-3.8523,-3.8256,-3.8479,-3.8476,-3.8475,-3.8474,-3.8473,-3.8617,-3.8653,-3.8639,-3.8662,-3.8656,-3.8659,-3.8689,-3.8663,-3.8685,-3.8698,-3.8663,-3.8698,-3.8689,-3.8696,-3.8692,-3.8719,-3.8681,-3.8706,-3.8712,-3.8719,-3.8729,-3.8528,-3.8721,-3.872,-3.872,-3.8719,-3.8719,0,-3.8823,-3.881,-3.8831,-3.8834,-3.8852,-3.8799,-3.8798,-3.8817,-3.8848,-3.8843,-3.8858,-3.8889,-3.8911,-3.8883,-3.8899,-3.8926,-3.8902,-3.8932,-3.8929,-3.8927,-3.8764,-3.8746,-3.8952,-3.8952,-3.8952,-3.8952,-3.8951,-3.8951,-3.8932,-3.899,-3.8964,-3.9019,-3.9005,-3.9038,-3.9041,-3.9044,-3.9039,-3.9076,-3.9093,-3.9075,-3.906,-3.9075,-3.9093,-3.9084,-3.9093,-3.9132,-3.9115,-3.8962,-3.8939,-3.8917,-3.89,-3.9135,-3.9135,-3.9275,-3.9277,-3.9278]},{"header":{"parameterUnit":"m.s-1","parameterCategory":1,"la1":30.2991,"la2":30.254,"lo1":-89.0895,"lo2":-89.0444,"dy":0.0017,"dx":0.0017,"nx":28,"ny":28,"refTime":"2025-08-04T21:00:00:Z","depth":0,"parameterNumber":3,"parameterNumberName":"V-component_of_WINDS"},"data":[0,0,0,0,0,0,0,0,0,0,0,0,0,0,0,0,0,0,0,0,0,0,0,0,0,0,0,0,0,0,0,0,0,0,0,0,0,0,0,0,0,0,0,0,0,0,0,0,0,0,0,0,0,0,0,0,0,0,-1.0466,-1.0467,0,-1.0561,-1.0562,-1.0564,-1.0637,-1.0638,-1.0638,-1.0639,-1.0733,-1.0734,-1.0736,0,0,0,0,0,0,0,0,0,0,0,0,0,-1.0343,-1.0345,-1.0466,-1.0467,-1.0469,-1.0561,-1.0562,-1.0564,-1.0637,-1.0638,-1.0638,-1.0639,-1.0732,-1.0734,-1.0736,0,0,0,0,0,0,0,0,0,0,0,0,0,-1.0413,-1.0346,-1.0466,-1.0516,-1.0522,-1.0561,-1.0563,-1.0564,-1.0637,-1.0638,-1.0639,-1.064,-1.0731,-1.0734,-1.0737,-1.0733,0,0,-1.0745,-1.0746,0,0,0,0,0,0,0,0,-1.0409,-1.0417,-1.0508,-1.0513,-1.0519,-1.0588,-1.0554,-1.062,-1.0636,-1.0593,-1.0639,-1.064,-1.0684,-1.069,-1.0706,-1.0737,-1.0741,-1.0745,-1.0747,-1.0748,-1.0749,0,0,0,0,0,0,0,-1.0404,-1.0414,-1.0504,-1.0509,-1.0516,-1.0532,-1.0544,-1.0567,-1.0631,-1.0597,-1.0602,-1.0613,-1.0687,-1.0703,-1.0708,-1.0742,-1.0745,-1.0748,-1.0749,-1.075,-1.0772,-1.0771,0,0,0,0,0,0,-1.0392,-1.0409,-1.0501,-1.0507,-1.0466,-1.0534,-1.0546,-1.0565,-1.0631,-1.0642,-1.0612,-1.0616,-1.0698,-1.0705,-1.0712,-1.0709,-1.0748,-1.0751,-1.0752,-1.0773,-1.0771,-1.077,0,0,0,0,0,0,-1.0389,-1.0399,-1.0497,-1.046,-1.0473,-1.0535,-1.0555,-1.0566,-1.0583,-1.0642,-1.0654,-1.0617,-1.0699,-1.0708,-1.0726,-1.0714,-1.0752,-1.0755,-1.0774,-1.0772,-1.0771,-1.0705,0,0,0,0,0,0,-1.0385,-1.0398,-1.0398,-1.0459,-1.0475,-1.0511,-1.0555,-1.0567,-1.0587,-1.0594,-1.065,-1.066,-1.07,-1.0722,-1.0729,-1.0718,-1.0757,-1.0775,-1.0773,-1.0771,-1.0708,-1.0701,-1.0695,0,0,0,0,0,-1.0381,-1.0376,-1.0398,-1.0409,-1.0477,-1.051,-1.0519,-1.0567,-1.0586,-1.0586,-1.0624,-1.0658,-1.0714,-1.0723,-1.0732,-1.0721,-1.0776,-1.0774,-1.0771,-1.0711,-1.0702,-1.0695,0,0,0,0,0,0,-1.0311,-1.0385,-1.041,-1.0425,-1.0461,-1.0523,-1.0524,-1.0556,-1.0586,-1.0591,-1.0647,-1.0659,-1.067,-1.0698,-1.0707,-1.0719,-1.0749,-1.0749,-1.0701,-1.0693,-1.0686,-1.0678,-1.0759,0,0,0,0,0,-1.0298,-1.032,-1.0383,-1.039,-1.0406,-1.0462,-1.0478,-1.0511,-1.055,-1.0566,-1.0605,-1.064,-1.0666,-1.0681,-1.0708,-1.0713,-1.0725,-1.071,-1.0703,-1.0697,-1.0695,-1.0697,-1.069,-1.0762,-1.0762,-1.0762,0,0,-1.027,-1.0313,-1.0323,-1.0377,-1.0409,-1.0428,-1.0474,-1.0494,-1.0509,-1.0568,-1.0588,-1.0618,-1.066,-1.0671,-1.0678,-1.0695,-1.0678,-1.0694,-1.0689,-1.069,-1.0694,-1.0687,-1.0681,-1.076,-1.0761,-1.0761,0,0,-1.0229,-1.0265,-1.0273,-1.0304,-1.0352,-1.0388,-1.039,-1.0447,-1.0469,-1.049,-1.0534,-1.0552,-1.0595,-1.0623,-1.0642,-1.061,-1.0641,-1.0617,-1.0581,-1.0582,-1.0576,-1.0571,-1.0557,-1.0551,-1.0615,-1.0615,-1.0615,0,-1.0188,-1.0221,-1.0273,-1.029,-1.0311,-1.0367,-1.0374,-1.0401,-1.0454,-1.0467,-1.0485,-1.0539,-1.0572,-1.0588,-1.058,-1.0595,-1.0597,-1.061,-1.0573,-1.0569,-1.0565,-1.0552,-1.0546,-1.0611,-1.0612,-1.0612,-1.0613,0,-1.0167,-1.0189,-1.019,-1.024,-1.0262,-1.0274,-1.0326,-1.0341,-1.0372,-1.0405,-1.0424,-1.0466,-1.05,-1.0507,-1.0538,-1.0527,-1.0536,-1.0563,-1.0594,-1.0554,-1.0542,-1.0538,-1.0606,-1.0608,-1.0609,-1.061,0,0,-1.0085,-1.0163,-1.0162,-1.0184,-1.024,-1.0258,-1.0271,-1.0306,-1.0316,-1.0351,-1.0361,-1.0396,-1.0421,-1.0443,-1.0477,-1.0478,-1.0446,-1.0505,-1.0507,-1.049,-1.0433,-1.0411,-1.0404,-1.0468,-1.0467,-1.0467,-1.0429,0,-1.0051,-1.0079,-1.0126,-1.0138,-1.0157,-1.021,-1.0221,-1.0255,-1.0287,-1.0307,-1.0341,-1.0364,-1.0396,-1.0409,-1.0413,-1.0449,-1.0435,-1.0453,-1.0476,-1.0476,-1.0461,-1.0399,-1.0376,-1.0338,-1.0425,-1.0424,-1.0424,0,-1.0015,-1.0046,-1.006,-1.0113,-1.0123,-1.0132,-1.0166,-1.0186,-1.0224,-1.0247,-1.0271,-1.0308,-1.0322,-1.0352,-1.0371,-1.0382,-1.0394,-1.0413,-1.0412,-1.0414,-1.0446,-1.0397,-1.0328,-1.0321,-1.0418,-1.0418,-1.0419,0,-0.995,-0.9996,-1.001,-1.0028,-1.009,-1.0094,-1.012,-1.0161,-1.0178,-1.0207,-1.0218,-1.0249,-1.0265,-1.0287,-1.033,-1.0348,-1.0343,-1.0377,-1.036,-1.0358,-1.0355,-1.0354,-1.0284,-1.0366,-1.0366,-1.0367,-1.0367,0,-0.9906,-0.9911,-0.9981,-0.9989,-0.9997,-1.0049,-1.0054,-1.0085,-1.012,-1.0133,-1.0181,-1.0192,-1.025,-1.0267,-1.0301,-1.0309,-1.0317,-1.0334,-1.0342,-1.0328,-1.0325,-1.0335,-1.0338,-1.0365,-1.0365,-1.0366,-1.0366,0,-0.9834,-0.9881,-0.9899,-0.9956,-0.997,-0.9973,-1.0021,-1.0029,-1.0064,-1.008,-1.0087,-1.014,-1.0162,-1.0208,-1.0243,-1.0265,-1.0265,-1.0282,-1.0252,-1.0257,-1.0236,-1.0236,-1.0168,-1.016,-1.025,-1.0249,-1.0248,0,-0.9801,-0.9807,-0.9864,-0.9877,-0.9901,-0.9921,-0.9939,-0.999,-1.0006,-1.005,-1.0052,-1.0079,-1.0102,-1.0135,-1.0176,-1.0202,-1.0218,-1.0192,-1.0222,-1.0207,-1.0214,-1.0212,-1.0211,-1.0185,-1.0183,-1.0182,-1.0182,0,-0.9737,-0.976,-0.9785,-0.9816,-0.9836,-0.9863,-0.9892,-0.99,-0.9958,-0.9973,-0.9997,-1.0015,-1.005,-1.0074,-1.0106,-1.0131,-1.0164,-1.0172,-1.0169,-1.0153,-1.0134,-1.0141,-1.0231,-1.0173,-1.0174,-1.0174,-1.0175,-1.0175,-0.9683,-0.9689,-0.973,-0.9754,-0.9782,-0.9808,-0.9818,-0.9854,-0.9875,-0.9908,-0.9937,-0.9957,-0.9993,-1.004,-1.0062,-1.0077,-1.0094,-1.009,-1.0089,-1.0086,-1.0079,-1.0134,-1.0084,-1.0084,-1.0084,-1.0084,-1.0085,0,-0.9619,-0.9648,-0.967,-0.9709,-0.9728,-0.976,-0.9794,-0.9806,-0.9824,-0.9856,-0.9878,-0.9903,-0.9927,-0.9968,-0.9995,-0.9998,-1.0014,-1.0003,-1.0002,-1.0007,-1.0064,-1.0063,-0.999,-0.999,-0.999,-0.999,-0.999,-0.999,-0.9588,-0.9599,-0.9626,-0.9651,-0.968,-0.9701,-0.9717,-0.974,-0.9765,-0.9792,-0.9812,-0.9839,-0.9874,-0.9903,-0.9925,-0.9937,-0.9943,-0.9926,-0.9942,-0.9994,-1.0003,-1.0011,-1.001,-0.9928,-0.9928,-0.9883,-0.9882,-0.9882]}]]